Nashville, TN

9:50 AM CDT on October 22, 2019 (GMT -0500)
Nashville International

Weather History for KBNA - May, 2019

Change the Weather History Date:

Thursday, May 30, 2019

  Actual Average Record
Temperature  
Mean Temperature 78 °F 71 °F  
Max Temperature 86 °F 82 °F 95 °F (1911)
Min Temperature 69 °F 61 °F 38 °F (1984)
Degree Days  
Heating Degree Days 0    
Month to date heating degree days 27  
Since 1 July heating degree days 3220  
Cooling Degree Days 12    
Month to date cooling degree days 265  
Year to date cooling degree days 324  
Growing Degree Days 28 (Base 50)    
Moisture  
Dew Point 65 °F    
Average Humidity 66    
Maximum Humidity 79    
Minimum Humidity 51    
Precipitation  
Precipitation 0.01 in 0.16 in 2.42 in (1903)
Month to date precipitation 1.59 5.33  
Year to date precipitation 29.47 21.13  
Sea Level Pressure  
Sea Level Pressure 29.86 in    
Wind  
Wind Speed 6 mph ()    
Max Wind Speed 21 mph    
Max Gust Speed 26 mph    
Visibility 10.0 miles    
Events      
T = Trace of Precipitation, MM = Missing Value Source: Averaged Metar Reports

Daily Weather History Graph

Daily Weather History Graph

Search for Another Location

Airport or City:

Astronomy

May. 30, 2019 Rise Set
Actual Time 5:31 AM CDT 7:57 PM CDT
Civil Twilight 5:02 AM CDT 8:26 PM CDT
Nautical Twilight 4:25 AM CDT 9:03 PM CDT
Astronomical Twilight 3:45 AM CDT 9:43 PM CDT
Moon 3:27 AM CDT (5/30) 4:12 PM CDT (5/30)
Length of Visible Light 15h 24m
Length of Day
14h 25m
Waning Crescent, 15% of the Moon is Illuminated
May 30
Waning Crescent
Jun 3
New
Jun 10
First Quarter
Jun 17
Full
Jun 25
Last Quarter

Hourly Weather History & Observations

Time (CDT) Temp. Heat Index Dew Point Humidity Pressure Visibility Wind Dir Wind Speed Gust Speed Precip Events Conditions
12:53 AM 75.9 °F - 63.0 °F 64% 29.88 in 10.0 mi NW 6.9 mph - N/A   Mostly Cloudy
1:53 AM 73.0 °F - 62.1 °F 68% 29.87 in 10.0 mi NNW 4.6 mph - N/A   Overcast
2:53 AM 72.0 °F - 62.1 °F 71% 29.84 in 10.0 mi SE 3.5 mph - N/A   Overcast
3:53 AM 71.1 °F - 62.1 °F 73% 29.85 in 10.0 mi South 3.5 mph - N/A   Overcast
4:53 AM 72.0 °F - 62.1 °F 71% 29.84 in 10.0 mi SE 3.5 mph - N/A   Overcast
5:53 AM 72.0 °F - 63.0 °F 73% 29.83 in 10.0 mi SSE 5.8 mph - N/A   Mostly Cloudy
6:53 AM 73.9 °F - 63.0 °F 68% 29.83 in 10.0 mi SSE 3.5 mph - N/A   Overcast
7:53 AM 77.0 °F - 63.0 °F 62% 29.85 in 10.0 mi South 6.9 mph - N/A   Overcast
8:53 AM 78.1 °F - 63.0 °F 60% 29.86 in 10.0 mi SW 6.9 mph - N/A   Overcast
9:53 AM 80.1 °F 81.9 °F 64.9 °F 60% 29.86 in 10.0 mi SSW 9.2 mph - N/A   Overcast
10:53 AM 82.9 °F 85.0 °F 66.0 °F 56% 29.87 in 10.0 mi West 13.8 mph 20.7 mph N/A   Overcast
11:42 AM 78.1 °F - 66.9 °F 68% 29.91 in 10.0 mi NW 12.7 mph - N/A   Overcast
11:53 AM 79.0 °F - 68.0 °F 69% 29.89 in 10.0 mi NW 11.5 mph - N/A   Mostly Cloudy
12:53 PM 78.1 °F - 66.0 °F 66% 29.88 in 10.0 mi WSW 10.4 mph 18.4 mph 0.00 in   Mostly Cloudy
1:53 PM 80.1 °F 81.9 °F 64.9 °F 60% 29.88 in 10.0 mi WSW 9.2 mph - N/A   Mostly Cloudy
2:53 PM 82.0 °F 83.8 °F 64.9 °F 56% 29.87 in 10.0 mi SSW 8.1 mph - N/A   Mostly Cloudy
3:53 PM 84.0 °F 85.8 °F 64.9 °F 53% 29.85 in 10.0 mi WSW 9.2 mph - N/A   Mostly Cloudy
4:53 PM 81.0 °F 83.3 °F 66.9 °F 62% 29.84 in 10.0 mi SW 5.8 mph - 0.00 in   Mostly Cloudy
5:53 PM 80.1 °F 82.3 °F 66.9 °F 64% 29.83 in 10.0 mi Variable 4.6 mph - 0.01 in   Mostly Cloudy
6:53 PM 82.0 °F 84.1 °F 66.0 °F 58% 29.83 in 10.0 mi WNW 10.4 mph - N/A   Mostly Cloudy
7:53 PM 79.0 °F - 66.0 °F 64% 29.85 in 10.0 mi WNW 8.1 mph - N/A   Mostly Cloudy
8:53 PM 75.9 °F - 64.9 °F 69% 29.86 in 10.0 mi Variable 3.5 mph - N/A   Scattered Clouds
9:53 PM 73.9 °F - 64.9 °F 73% 29.88 in 10.0 mi Calm Calm - N/A   Partly Cloudy
10:53 PM 73.0 °F - 64.9 °F 76% 29.89 in 10.0 mi Calm Calm - N/A   Partly Cloudy
11:53 PM 72.0 °F - 64.9 °F 78% 29.89 in 10.0 mi Calm Calm - N/A   Partly Cloudy